SCP
0 0 0 0 0 0 0 0 0 0 0 0 0 0 0 0 0 0 0 0 0 0 0 0 0 0 0 0 0 0 0 0 0 0 0 0 0 0 0 0 0 0 0
0 0 0 0 0 0 0 0 0 0 0 0 0 0 0 0 0 0 0 0 0 0 0 0 0 0 0 0 0 0 0 0 0 0 0 0 0 0 0 0 0 0 0
0 0 0 0 0 0 0 0 0 0 0 0 0 0 0 0 0 0 0 0 0 0 0 0 0 0 0 0 0 0 0 0 0 0 0 0 0 0 0 0 0 0 0
0 0 0 0 0 0 0 0 0 0 0 0 0 0 0 0 0 0 0 0 0 0 0 0 0 0 0 0 0 0 0 0 0 0 0 0 0 0 0 0 0 0 0
0 0 0 0 0 0 0 0 0 0 0 0 0 0 0 0 0 0 0 0 0 0 0 0 0 0 0 0 0 0 0 0 0 0 0 0 0 0 0 0 0 0 0
0 0 0 0 0 0 0 0 0 0 0 0 0 0 0 0 0 0 0 0 0 0 0 0 0 0 0 0 0 0 0 0 0 0 0 0 0 0 0 0 0 0 0
0 0 0 0 0 0 0 0 0 0 0 0 0 0 0 0 0 0 0 0 0 0 0 0 0 0 0 0 0 0 0 0 0 0 0 0 0 0 0 0 0 0 0
0 0 0 0 0 0 0 0 0 0 0 0 0 0 0 0 0 0 0 0 0 0 0 0 0 0 0 0 0 0 0 0 0 0 0 0 0 0 0 0 0 0 0
0 0 0 0 0 0 0 0 0 0 0 0 0 0 0 0 0 0 0 0 0 0 0 0 0 0 0 0 0 0 0 0 0 0 0 0 0 0 0 0 0 0 0
0 0 0 0 0 0 0 0 0 0 0 0 0 0 0 0 0 0 0 0 0 0 0 0 0 0 0 0 0 0 0 0 0 0 0 0 0 0 0 0 0 0 0
0 0 0 0 0 0 0 0 0 0 0 0 0 0 0 0 0 0 0 0 0 0 0 0 0 0 0 0 0 0 0 0 0 0 0 0 0 0 0 0 0 0 0
0 0 0 0 0 0 0 0 0 0 0 0 0 0 -0 0 0 0 0 0 0 0 0 0 0 0 0 0 0 0 0 0 0 0 0 0 0 0 0 0 0 0 0
0 0 0 0 0 0 0 0 0 0 0 0 0 0 0 0 0 -0 0 0 0 0 0 0 0 0 0 0 0 0 0 0 0 0 0 0 0 0 0 0 0 0 0
0 0 0 0 0 0 0 0 0 0 0 0 0 0 0 0 0 0 0 -0 -0 0 0 0 0 0 0 0 0 0 0 0 0 0 0 0 0 0 0 0 0 0 0
0 0 0 0 0 0 0 0 0 0 0 0 0 0 0 0 0 0 0 0 -0 -0 0 0 0 0 0 0 0 0 0 0 0 0 0 0 0 0 0 0 0 0 0
0 0 0 0 0 0 0 0 0 0 0 0 0 0 0 0 0 0 0 0 0 0 0 0 -0 0 0 0 0 0 0 0 0 0 0 0 0 0 0 0 0 0 0
0 0 0 0 0 0 0 0 0 0 0 0 0 0 0 0 0 0 0 0 0 0 0 0 0 0 0 0 0 0 0 0 0 0 0 0 0 0 0 0 0 0 0
0 0 0 0 0 0 0 0 0 0 0 0 0 0 0 0 0 0 0 0 0 0 0 0 0 0 0 0 0 0 0 0 0 0 0 0 0 0 0 0 0 0 0
0 0 0 0 0 0 0 0 0 0 0 0 0 0 0 0 0 0 0 0 0 0 0 0 0 0 0 0 0 0 0 0 0 0 0 0 0 0 0 0 0 0 0
0 0 0 0 0 0 0 0 0 0 0 0 0 0 0 0 0 0 0 0 0 0 0 0 0 0 0 0 0 0 0 0 0 0 0 0 0 0 0 0 0 0 0
0 0 0 0 0 0 0 0 0 0 0 0 0 0 0 0 0 0 0 0 0 0 0 0 0 0 0 0 0 0 0 0 0 0 0 0 0 0 0 0 0 0 0
0 0 0 0 0 0 0 0 0 0 0 0 0 0 0 0 0 0 0 0 0 0 0 0 0 0 0 0 0 0 0 0 0 0 0 0 0 0 0 0 0 0 0
0 0 0 0 0 0 0 0 0 0 0 0 0 0 0 0 0 0 0 0 0 0 0 0 0 0 0 0 0 0 0 0 0 0 0 0 0 0 0 0 0 0 0
0 0 0 0 0 0 0 0 0 0 0 0 0 0 0 0 0 0 0 0 0 0 0 0 0 0 0 0 0 0 0 0 0 0 0 0 0 0 0 0 0 0 0
0 0 0 0 0 0 0 0 0 0 0 0 0 0 0 0 0 0 0 0 0 0 0 0 0 0 0 0 0 0 0 0 0 0 0 0 0 0 0 0 0 0 0
0 0 0 0 0 0 0 0 0 0 0 0 0 0 0 0 0 0 0 0 0 0 0 0 0 0 0 0 0 0 0 0 0 0 0 0 0 0 0 0 0 0 0
Wind_Speed_500mb
38 39 47 48 51 48 54 63 63 57 60 66 63 70 69 67 57 57 55 54 56 58 54 56 54 53 55 56 53 50 53 53 52 51 43 39 33 35 30 40 38 38 33
41 43 45 57 59 58 50 67 68 63 55 59 69 73 71 62 57 54 53 52 54 59 59 58 59 57 60 59 59 60 57 56 52 48 45 29 28 33 33 29 33 32 29
31 26 23 31 45 57 56 58 71 67 62 53 62 70 77 68 64 62 61 57 56 61 62 62 62 60 62 63 63 63 62 61 54 47 32 24 17 37 36 37 36 36 33
9 6 22 24 36 46 59 52 67 68 61 62 63 69 77 82 82 79 78 70 65 64 63 66 64 62 63 63 63 61 61 60 60 52 42 33 31 32 30 45 48 48 45
24 17 16 23 23 41 55 48 49 66 73 72 78 80 77 74 73 86 91 79 72 65 65 70 67 64 66 65 63 61 62 60 56 59 55 40 30 26 32 42 53 50 46
37 21 3 4 22 28 45 42 42 48 57 65 72 77 80 72 76 81 95 86 77 71 70 73 71 63 67 66 62 58 59 59 58 55 54 51 43 40 33 29 49 54 47
45 33 28 16 14 33 38 39 42 43 52 61 69 73 75 74 73 80 93 89 79 81 78 78 73 70 67 65 61 57 59 58 59 58 57 54 49 35 34 28 35 50 45
45 37 30 24 18 13 26 30 30 30 41 52 60 67 85 91 87 87 86 86 86 77 79 81 77 72 67 63 59 57 56 58 58 57 55 56 53 50 40 39 34 31 40
41 45 37 39 35 24 11 21 29 22 8 18 14 29 49 85 89 94 87 86 79 79 83 80 78 74 68 64 62 61 59 59 61 59 54 52 50 51 49 44 40 32 34
44 47 43 35 34 32 28 21 20 19 14 13 9 12 25 35 60 71 83 82 83 79 72 78 77 73 70 67 64 63 61 61 61 62 61 58 54 53 54 51 47 44 40
43 46 48 36 32 32 33 34 26 21 23 20 7 13 11 12 42 58 67 64 60 59 58 69 73 72 67 65 63 64 64 63 60 62 63 63 61 60 59 55 52 49 47
42 44 45 46 44 44 43 41 35 30 14 20 13 9 4 8 6 30 39 42 53 54 47 54 55 59 63 63 62 63 64 64 64 62 62 61 60 63 61 60 58 53 51
44 45 43 50 52 51 48 45 41 39 34 16 22 22 12 17 24 17 19 9 9 51 59 56 50 47 53 57 61 61 61 64 63 62 61 60 59 64 62 62 59 56 54
43 48 48 46 50 52 52 48 45 42 36 31 27 20 28 28 31 25 18 19 15 13 22 54 36 32 37 47 63 64 59 56 57 58 61 60 63 63 62 64 61 55 52
44 46 50 47 46 48 48 46 48 43 34 33 32 31 27 20 23 39 34 31 34 28 29 29 19 19 27 37 38 47 48 53 60 62 66 69 66 59 62 62 62 56 54
44 45 44 43 47 48 45 43 42 39 25 32 30 28 27 18 24 22 21 25 38 43 40 34 30 36 33 48 39 42 49 51 58 62 72 72 72 68 68 65 68 71 68
47 52 50 47 45 44 40 40 38 32 23 23 27 26 21 19 17 20 20 16 18 22 21 25 24 27 31 38 40 37 37 37 39 47 57 62 66 69 71 66 61 55 54
50 49 47 46 44 40 34 32 30 30 29 31 27 24 20 15 13 12 15 19 17 15 17 23 23 23 28 36 30 31 35 34 37 39 40 41 48 52 55 57 54 53 49
48 41 43 44 43 41 37 33 28 27 31 34 34 29 24 18 10 9 9 10 15 18 22 22 24 22 25 31 31 34 34 33 36 37 38 38 38 38 44 50 50 49 44
47 44 43 46 47 45 39 37 36 34 33 32 33 31 28 22 17 8 4 8 7 10 20 25 26 27 29 32 35 36 37 35 36 38 36 35 34 36 39 44 44 47 47
45 43 45 48 48 45 44 44 42 43 37 30 26 27 27 24 18 13 9 7 6 9 13 13 15 19 23 26 28 30 31 34 30 29 29 31 33 35 35 39 45 45 41
44 42 44 41 42 41 42 42 44 40 35 32 29 27 26 25 23 19 10 7 9 7 10 15 19 21 22 22 24 26 23 23 24 22 24 27 31 31 37 43 49 47 45
44 37 37 39 43 45 45 44 43 40 37 30 24 23 23 22 23 19 15 8 8 8 12 14 19 22 23 23 22 22 25 25 23 23 23 24 25 29 37 41 48 53 52
37 36 36 37 41 43 44 44 44 42 37 34 29 24 20 22 20 15 13 12 7 6 10 14 16 19 23 25 23 25 27 25 26 29 29 23 23 28 31 34 48 51 51
38 35 37 38 39 40 40 42 44 45 41 37 33 29 28 23 24 21 14 13 10 8 12 14 15 18 20 20 23 23 20 22 22 22 25 29 33 38 38 45 49 51 52
39 37 35 34 38 41 40 38 37 41 42 40 37 36 35 30 28 28 24 13 9 10 12 16 20 21 25 25 22 23 20 19 22 21 28 33 37 43 49 54 58 57 55
Wind_Direction_500mb
244 231 224 227 224 220 220 212 220 221 210 210 214 211 197 208 205 211 215 216 212 208 204 203 204 199 198 196 193 191 189 185 191 179 172 177 184 177 171 166 185 172 172
250 249 242 226 228 219 224 210 221 219 219 216 213 216 215 213 220 217 218 223 219 213 208 207 207 202 196 195 197 196 196 195 197 183 172 160 176 185 188 190 187 181 183
261 257 243 222 223 222 224 222 212 221 220 221 214 215 214 217 215 208 217 222 224 219 210 210 211 204 199 199 200 201 205 198 195 198 183 154 184 187 193 198 202 205 193
17 293 253 242 235 235 220 227 216 209 221 225 218 219 220 221 225 218 223 221 223 221 212 211 213 207 201 202 202 205 207 209 199 192 200 198 195 178 184 200 210 214 211
20 344 296 258 245 233 215 217 223 219 217 215 222 226 229 232 238 227 222 220 220 220 215 211 213 210 205 207 209 209 208 210 210 204 196 195 191 203 190 198 205 212 222
37 41 26 177 219 217 212 216 223 221 220 218 225 231 236 234 220 224 219 219 218 217 216 213 214 213 212 212 215 216 215 213 210 217 212 208 199 197 198 206 208 209 210
31 19 27 37 87 138 168 198 201 213 215 221 230 238 237 230 232 223 220 220 220 215 218 215 213 213 214 217 218 219 218 217 214 216 218 218 218 218 214 215 197 203 211
36 29 24 27 44 109 188 209 221 209 216 228 235 236 232 233 232 227 225 222 221 226 222 217 214 214 215 217 219 221 222 220 221 219 223 224 221 224 220 221 212 191 209
36 31 38 44 46 57 127 191 206 224 248 235 280 266 251 227 205 213 223 223 225 226 222 218 217 215 216 218 220 221 221 220 222 226 226 227 226 223 227 232 233 226 217
35 31 28 41 52 61 71 87 147 190 162 169 123 58 241 218 210 217 216 215 215 219 216 221 218 217 218 219 221 224 223 225 224 226 229 231 230 229 230 233 234 242 249
33 31 26 31 41 54 67 77 89 118 166 168 177 93 31 348 225 213 210 214 213 207 205 228 222 220 221 222 223 225 227 228 229 230 231 233 235 236 238 238 241 241 244
29 29 27 35 42 48 54 65 76 84 110 166 187 134 152 111 229 216 212 203 192 194 201 223 218 221 223 225 226 227 228 230 232 234 234 235 235 239 241 243 243 242 243
24 25 33 33 38 42 50 56 64 69 70 102 178 189 214 195 176 158 208 110 242 209 206 209 209 208 219 224 228 228 232 233 234 238 240 240 238 237 239 242 242 241 242
25 21 28 30 34 40 45 52 59 60 58 80 106 130 176 197 207 219 202 184 204 201 209 215 201 205 217 226 229 235 234 235 237 240 243 243 242 242 241 242 244 243 240
21 18 19 24 29 36 42 53 56 56 54 59 85 90 83 152 172 200 205 180 169 179 190 205 219 216 204 211 220 225 227 234 241 239 244 243 243 242 244 243 242 237 235
17 14 15 22 26 27 34 42 41 41 51 73 67 86 92 96 108 139 167 199 210 214 211 214 201 202 212 232 239 243 239 240 240 250 248 250 247 242 238 240 246 249 246
17 17 19 25 24 23 29 35 30 31 30 51 65 73 97 105 109 109 129 148 175 189 194 206 210 218 227 224 227 233 236 240 248 250 253 249 251 249 251 251 244 243 244
22 16 21 24 24 25 31 33 26 23 24 35 38 49 60 97 115 135 154 151 156 176 199 225 229 226 232 238 242 234 237 241 251 255 260 253 250 252 244 242 240 236 226
21 19 26 25 22 25 33 29 25 21 23 30 31 29 29 39 61 139 163 181 198 196 209 228 234 236 242 240 234 238 244 244 246 246 249 254 252 247 244 235 234 223 225
18 21 28 27 24 26 29 28 22 22 22 22 21 16 15 15 15 13 196 209 226 238 228 231 237 239 244 247 250 246 246 251 256 253 248 243 242 238 237 229 223 222 216
15 18 28 27 17 25 29 25 21 19 16 11 10 12 10 4 358 359 326 271 255 255 248 236 231 239 243 242 248 245 244 243 238 239 242 244 247 245 227 224 226 226 226
14 17 21 26 19 24 24 23 19 15 16 12 2 0 6 2 356 348 336 280 260 263 258 245 237 239 241 241 241 247 252 247 240 246 247 247 247 241 230 227 228 228 222
3 11 13 22 22 26 27 23 15 12 10 12 19 6 359 5 358 354 345 314 276 263 266 267 250 246 249 250 249 244 243 242 242 242 245 246 246 243 238 234 233 225 219
354 1 7 17 18 22 24 20 12 8 10 6 8 15 9 359 9 7 357 337 309 266 254 259 257 260 257 245 250 249 247 243 242 238 232 236 239 241 237 223 220 224 219
354 2 3 12 13 14 15 13 8 3 3 5 5 8 14 11 3 3 6 353 333 303 280 266 262 257 258 249 238 234 239 255 263 249 235 223 221 217 209 210 215 211 212
353 356 1 4 11 12 6 3 2 358 355 357 3 12 7 9 2 355 346 354 353 307 272 272 261 253 254 256 243 236 226 235 244 236 228 224 224 219 212 211 207 207 209
Wind_Speed_850mb
38 39 47 48 51 48 54 63 63 57 60 66 63 70 69 67 57 57 55 54 56 58 54 56 54 53 55 56 53 50 53 53 52 51 43 39 33 35 30 40 38 38 33
41 43 45 57 59 58 50 67 68 63 55 59 69 73 71 62 57 54 53 52 54 59 59 58 59 57 60 59 59 60 57 56 52 48 45 29 28 33 33 29 33 32 29
31 26 23 31 45 57 56 58 71 67 62 53 62 70 77 68 64 62 61 57 56 61 62 62 62 60 62 63 63 63 62 61 54 47 32 24 17 37 36 37 36 36 33
9 6 22 24 36 46 59 52 67 68 61 62 63 69 77 82 82 79 78 70 65 64 63 66 64 62 63 63 63 61 61 60 60 52 42 33 31 32 30 45 48 48 45
24 17 16 23 23 41 55 48 49 66 73 72 78 80 77 74 73 86 91 79 72 65 65 70 67 64 66 65 63 61 62 60 56 59 55 40 30 26 32 42 53 50 46
37 21 3 4 22 28 45 42 42 48 57 65 72 77 80 72 76 81 95 86 77 71 70 73 71 63 67 66 62 58 59 59 58 55 54 51 43 40 33 29 49 54 47
45 33 28 16 14 33 38 39 42 43 52 61 69 73 75 74 73 80 93 89 79 81 78 78 73 70 67 65 61 57 59 58 59 58 57 54 49 35 34 28 35 50 45
45 37 30 24 18 13 26 30 30 30 41 52 60 67 85 91 87 87 86 86 86 77 79 81 77 72 67 63 59 57 56 58 58 57 55 56 53 50 40 39 34 31 40
41 45 37 39 35 24 11 21 29 22 8 18 14 29 49 85 89 94 87 86 79 79 83 80 78 74 68 64 62 61 59 59 61 59 54 52 50 51 49 44 40 32 34
44 47 43 35 34 32 28 21 20 19 14 13 9 12 25 35 60 71 83 82 83 79 72 78 77 73 70 67 64 63 61 61 61 62 61 58 54 53 54 51 47 44 40
43 46 48 36 32 32 33 34 26 21 23 20 7 13 11 12 42 58 67 64 60 59 58 69 73 72 67 65 63 64 64 63 60 62 63 63 61 60 59 55 52 49 47
42 44 45 46 44 44 43 41 35 30 14 20 13 9 4 8 6 30 39 42 53 54 47 54 55 59 63 63 62 63 64 64 64 62 62 61 60 63 61 60 58 53 51
44 45 43 50 52 51 48 45 41 39 34 16 22 22 12 17 24 17 19 9 9 51 59 56 50 47 53 57 61 61 61 64 63 62 61 60 59 64 62 62 59 56 54
43 48 48 46 50 52 52 48 45 42 36 31 27 20 28 28 31 25 18 19 15 13 22 54 36 32 37 47 63 64 59 56 57 58 61 60 63 63 62 64 61 55 52
44 46 50 47 46 48 48 46 48 43 34 33 32 31 27 20 23 39 34 31 34 28 29 29 19 19 27 37 38 47 48 53 60 62 66 69 66 59 62 62 62 56 54
44 45 44 43 47 48 45 43 42 39 25 32 30 28 27 18 24 22 21 25 38 43 40 34 30 36 33 48 39 42 49 51 58 62 72 72 72 68 68 65 68 71 68
47 52 50 47 45 44 40 40 38 32 23 23 27 26 21 19 17 20 20 16 18 22 21 25 24 27 31 38 40 37 37 37 39 47 57 62 66 69 71 66 61 55 54
50 49 47 46 44 40 34 32 30 30 29 31 27 24 20 15 13 12 15 19 17 15 17 23 23 23 28 36 30 31 35 34 37 39 40 41 48 52 55 57 54 53 49
48 41 43 44 43 41 37 33 28 27 31 34 34 29 24 18 10 9 9 10 15 18 22 22 24 22 25 31 31 34 34 33 36 37 38 38 38 38 44 50 50 49 44
47 44 43 46 47 45 39 37 36 34 33 32 33 31 28 22 17 8 4 8 7 10 20 25 26 27 29 32 35 36 37 35 36 38 36 35 34 36 39 44 44 47 47
45 43 45 48 48 45 44 44 42 43 37 30 26 27 27 24 18 13 9 7 6 9 13 13 15 19 23 26 28 30 31 34 30 29 29 31 33 35 35 39 45 45 41
44 42 44 41 42 41 42 42 44 40 35 32 29 27 26 25 23 19 10 7 9 7 10 15 19 21 22 22 24 26 23 23 24 22 24 27 31 31 37 43 49 47 45
44 37 37 39 43 45 45 44 43 40 37 30 24 23 23 22 23 19 15 8 8 8 12 14 19 22 23 23 22 22 25 25 23 23 23 24 25 29 37 41 48 53 52
37 36 36 37 41 43 44 44 44 42 37 34 29 24 20 22 20 15 13 12 7 6 10 14 16 19 23 25 23 25 27 25 26 29 29 23 23 28 31 34 48 51 51
38 35 37 38 39 40 40 42 44 45 41 37 33 29 28 23 24 21 14 13 10 8 12 14 15 18 20 20 23 23 20 22 22 22 25 29 33 38 38 45 49 51 52
39 37 35 34 38 41 40 38 37 41 42 40 37 36 35 30 28 28 24 13 9 10 12 16 20 21 25 25 22 23 20 19 22 21 28 33 37 43 49 54 58 57 55
Wind_Direction_850mb
244 231 224 227 224 220 220 212 220 221 210 210 214 211 197 208 205 211 215 216 212 208 204 203 204 199 198 196 193 191 189 185 191 179 172 177 184 177 171 166 185 172 172
250 249 242 226 228 219 224 210 221 219 219 216 213 216 215 213 220 217 218 223 219 213 208 207 207 202 196 195 197 196 196 195 197 183 172 160 176 185 188 190 187 181 183
261 257 243 222 223 222 224 222 212 221 220 221 214 215 214 217 215 208 217 222 224 219 210 210 211 204 199 199 200 201 205 198 195 198 183 154 184 187 193 198 202 205 193
17 293 253 242 235 235 220 227 216 209 221 225 218 219 220 221 225 218 223 221 223 221 212 211 213 207 201 202 202 205 207 209 199 192 200 198 195 178 184 200 210 214 211
20 344 296 258 245 233 215 217 223 219 217 215 222 226 229 232 238 227 222 220 220 220 215 211 213 210 205 207 209 209 208 210 210 204 196 195 191 203 190 198 205 212 222
37 41 26 177 219 217 212 216 223 221 220 218 225 231 236 234 220 224 219 219 218 217 216 213 214 213 212 212 215 216 215 213 210 217 212 208 199 197 198 206 208 209 210
31 19 27 37 87 138 168 198 201 213 215 221 230 238 237 230 232 223 220 220 220 215 218 215 213 213 214 217 218 219 218 217 214 216 218 218 218 218 214 215 197 203 211
36 29 24 27 44 109 188 209 221 209 216 228 235 236 232 233 232 227 225 222 221 226 222 217 214 214 215 217 219 221 222 220 221 219 223 224 221 224 220 221 212 191 209
36 31 38 44 46 57 127 191 206 224 248 235 280 266 251 227 205 213 223 223 225 226 222 218 217 215 216 218 220 221 221 220 222 226 226 227 226 223 227 232 233 226 217
35 31 28 41 52 61 71 87 147 190 162 169 123 58 241 218 210 217 216 215 215 219 216 221 218 217 218 219 221 224 223 225 224 226 229 231 230 229 230 233 234 242 249
33 31 26 31 41 54 67 77 89 118 166 168 177 93 31 348 225 213 210 214 213 207 205 228 222 220 221 222 223 225 227 228 229 230 231 233 235 236 238 238 241 241 244
29 29 27 35 42 48 54 65 76 84 110 166 187 134 152 111 229 216 212 203 192 194 201 223 218 221 223 225 226 227 228 230 232 234 234 235 235 239 241 243 243 242 243
24 25 33 33 38 42 50 56 64 69 70 102 178 189 214 195 176 158 208 110 242 209 206 209 209 208 219 224 228 228 232 233 234 238 240 240 238 237 239 242 242 241 242
25 21 28 30 34 40 45 52 59 60 58 80 106 130 176 197 207 219 202 184 204 201 209 215 201 205 217 226 229 235 234 235 237 240 243 243 242 242 241 242 244 243 240
21 18 19 24 29 36 42 53 56 56 54 59 85 90 83 152 172 200 205 180 169 179 190 205 219 216 204 211 220 225 227 234 241 239 244 243 243 242 244 243 242 237 235
17 14 15 22 26 27 34 42 41 41 51 73 67 86 92 96 108 139 167 199 210 214 211 214 201 202 212 232 239 243 239 240 240 250 248 250 247 242 238 240 246 249 246
17 17 19 25 24 23 29 35 30 31 30 51 65 73 97 105 109 109 129 148 175 189 194 206 210 218 227 224 227 233 236 240 248 250 253 249 251 249 251 251 244 243 244
22 16 21 24 24 25 31 33 26 23 24 35 38 49 60 97 115 135 154 151 156 176 199 225 229 226 232 238 242 234 237 241 251 255 260 253 250 252 244 242 240 236 226
21 19 26 25 22 25 33 29 25 21 23 30 31 29 29 39 61 139 163 181 198 196 209 228 234 236 242 240 234 238 244 244 246 246 249 254 252 247 244 235 234 223 225
18 21 28 27 24 26 29 28 22 22 22 22 21 16 15 15 15 13 196 209 226 238 228 231 237 239 244 247 250 246 246 251 256 253 248 243 242 238 237 229 223 222 216
15 18 28 27 17 25 29 25 21 19 16 11 10 12 10 4 358 359 326 271 255 255 248 236 231 239 243 242 248 245 244 243 238 239 242 244 247 245 227 224 226 226 226
14 17 21 26 19 24 24 23 19 15 16 12 2 0 6 2 356 348 336 280 260 263 258 245 237 239 241 241 241 247 252 247 240 246 247 247 247 241 230 227 228 228 222
3 11 13 22 22 26 27 23 15 12 10 12 19 6 359 5 358 354 345 314 276 263 266 267 250 246 249 250 249 244 243 242 242 242 245 246 246 243 238 234 233 225 219
354 1 7 17 18 22 24 20 12 8 10 6 8 15 9 359 9 7 357 337 309 266 254 259 257 260 257 245 250 249 247 243 242 238 232 236 239 241 237 223 220 224 219
354 2 3 12 13 14 15 13 8 3 3 5 5 8 14 11 3 3 6 353 333 303 280 266 262 257 258 249 238 234 239 255 263 249 235 223 221 217 209 210 215 211 212
353 356 1 4 11 12 6 3 2 358 355 357 3 12 7 9 2 355 346 354 353 307 272 272 261 253 254 256 243 236 226 235 244 236 228 224 224 219 212 211 207 207 209